[[{"header":{"parameterUnit":"m.s-1","parameterCategory":1,"la1":30.2991,"la2":30.254,"lo1":-89.0895,"lo2":-89.0444,"dy":0.0017,"dx":0.0017,"nx":28,"ny":28,"refTime":"2024-02-05T03:00:00:Z","depth":0,"parameterNumber":2,"parameterNumberName":"U-component_of_WINDS"},"data":[0,0,0,0,0,0,0,0,0,0,0,0,0,0,0,0,0,0,0,0,0,0,0,0,0,0,0,0,0,0,0,0,0,0,0,0,0,0,0,0,0,0,0,0,0,0,0,0,0,0,0,0,0,0,0,0,0,0,2.3391,2.3389,0,2.3242,2.324,2.3239,2.3075,2.3073,2.307,2.3068,2.2923,2.2921,2.292,0,0,0,0,0,0,0,0,0,0,0,0,0,2.354,2.3538,2.3391,2.3389,2.3387,2.3242,2.324,2.3238,2.3075,2.3073,2.307,2.3067,2.2923,2.2921,2.292,0,0,0,0,0,0,0,0,0,0,0,0,0,2.3442,2.3538,2.3391,2.3288,2.3278,2.3243,2.324,2.3238,2.3076,2.3072,2.3069,2.3066,2.2924,2.2922,2.2919,2.2976,0,0,2.2912,2.2911,0,0,0,0,0,0,0,0,2.3448,2.3437,2.3305,2.3295,2.3283,2.3173,2.3239,2.315,2.3077,2.3153,2.3068,2.3064,2.301,2.3,2.298,2.2969,2.2963,2.2912,2.291,2.2909,2.2908,0,0,0,0,0,0,0,2.3455,2.3442,2.3332,2.3304,2.329,2.3252,2.3234,2.3222,2.3103,2.3146,2.3134,2.3118,2.3003,2.2983,2.2975,2.2961,2.2912,2.2909,2.2908,2.2907,2.2989,2.2992,0,0,0,0,0,0,2.3476,2.3449,2.3337,2.3328,2.3358,2.3252,2.3232,2.3212,2.3103,2.3083,2.3121,2.3111,2.2989,2.2978,2.297,2.3028,2.2909,2.2907,2.2905,2.2985,2.2989,2.2993,0,0,0,0,0,0,2.348,2.3468,2.3343,2.3385,2.3366,2.3253,2.3233,2.3211,2.3191,2.3084,2.3063,2.3122,2.2985,2.2973,2.2975,2.3021,2.2906,2.2903,2.2981,2.2986,2.2991,2.3147,0,0,0,0,0,0,2.3485,2.347,2.3489,2.3386,2.3364,2.3349,2.3235,2.3211,2.3186,2.3171,2.3079,2.3061,2.2982,2.298,2.2973,2.3016,2.2901,2.2976,2.2983,2.299,2.3138,2.3158,2.3175,0,0,0,0,0,2.3491,2.3541,2.3491,2.3478,2.3385,2.3352,2.334,2.3246,2.3191,2.321,2.3141,2.3064,2.3017,2.2981,2.2972,2.3015,2.2973,2.2981,2.2989,2.3129,2.3154,2.3174,0,0,0,0,0,0,2.3654,2.3525,2.3469,2.3486,2.3431,2.3325,2.3346,2.3275,2.3236,2.3224,2.3111,2.3092,2.3107,2.3061,2.3023,2.3064,2.2984,2.2991,2.3094,2.3116,2.3134,2.3145,2.2899,0,0,0,0,0,2.3692,2.3674,2.3563,2.3589,2.3564,2.346,2.3442,2.3374,2.3314,2.329,2.3222,2.3168,2.3141,2.3126,2.3095,2.313,2.3108,2.3155,2.3174,2.3189,2.3197,2.3212,2.3232,2.302,2.302,2.302,0,0,2.3771,2.3698,2.3693,2.362,2.3569,2.3555,2.3442,2.3431,2.342,2.3289,2.3286,2.3234,2.3167,2.3186,2.319,2.3147,2.325,2.32,2.3213,2.3212,2.3223,2.3243,2.3261,2.3026,2.3025,2.3024,0,0,2.3906,2.3848,2.3863,2.3814,2.3738,2.3668,2.3673,2.3576,2.3536,2.3531,2.3432,2.3418,2.3374,2.333,2.3302,2.342,2.3348,2.3414,2.3511,2.3527,2.3544,2.3558,2.3601,2.3618,2.3421,2.3422,2.3422,0,2.4013,2.3985,2.3881,2.3876,2.3847,2.3726,2.3741,2.37,2.3619,2.3603,2.3555,2.3497,2.3443,2.345,2.3478,2.3459,2.3462,2.3424,2.3549,2.3563,2.3574,2.3614,2.363,2.343,2.3429,2.3428,2.3427,0,2.4122,2.4104,2.4126,2.4048,2.4021,2.4027,2.3926,2.3912,2.3847,2.3783,2.378,2.371,2.3663,2.366,2.3597,2.3658,2.3634,2.357,2.3487,2.3605,2.364,2.3655,2.3442,2.3439,2.3437,2.3435,0,0,2.4357,2.422,2.423,2.4193,2.41,2.4085,2.4086,2.4037,2.4028,2.3977,2.3975,2.394,2.388,2.3848,2.3779,2.3794,2.3893,2.3727,2.3724,2.3761,2.3957,2.4006,2.4025,2.3843,2.3846,2.3848,2.3962,0,2.4476,2.4467,2.4373,2.4393,2.4375,2.426,2.426,2.4205,2.4145,2.4124,2.4058,2.4036,2.3957,2.3937,2.3946,2.3879,2.3931,2.3869,2.3844,2.3844,2.3865,2.4044,2.4096,2.4207,2.3976,2.3978,2.3979,0,2.4614,2.4568,2.4585,2.4491,2.448,2.4482,2.443,2.4411,2.4346,2.4301,2.4266,2.4187,2.4183,2.4104,2.4098,2.4059,2.4043,2.4008,2.401,2.4005,2.392,2.4045,2.4241,2.4258,2.4,2.3998,2.3997,0,2.4785,2.4727,2.473,2.4702,2.4592,2.4596,2.4551,2.4482,2.4459,2.4414,2.4398,2.4355,2.4332,2.4301,2.4214,2.4164,2.4219,2.4132,2.4183,2.4186,2.4201,2.4201,2.4398,2.419,2.4189,2.4189,2.4189,0,2.4929,2.4944,2.4805,2.4807,2.482,2.4713,2.4731,2.4675,2.4614,2.4604,2.4502,2.4496,2.438,2.4361,2.4293,2.4299,2.4289,2.4254,2.4236,2.4264,2.4269,2.4253,2.4243,2.4193,2.4192,2.4191,2.4191,0,2.5122,2.5029,2.5024,2.492,2.4894,2.4909,2.4821,2.4819,2.4752,2.4742,2.4733,2.463,2.4602,2.4511,2.4462,2.4416,2.4443,2.4408,2.4465,2.4453,2.451,2.4506,2.4704,2.4725,2.4503,2.4505,2.4507,0,2.522,2.5229,2.5125,2.5109,2.5068,2.5045,2.5021,2.4916,2.4895,2.482,2.4829,2.4792,2.4757,2.4719,2.4641,2.4603,2.4566,2.4638,2.456,2.4588,2.4568,2.4569,2.457,2.4656,2.4659,2.4661,2.4663,0,2.5405,2.5358,2.5325,2.5276,2.5249,2.5206,2.5158,2.5152,2.5035,2.5017,2.4986,2.4959,2.4907,2.4873,2.4822,2.4777,2.4702,2.4688,2.4698,2.4727,2.476,2.4744,2.4512,2.4685,2.4682,2.4681,2.468,2.4679,2.5554,2.5556,2.5483,2.545,2.5401,2.5358,2.5351,2.5283,2.5255,2.5203,2.5143,2.512,2.5054,2.4977,2.4939,2.492,2.4879,2.4893,2.4897,2.4903,2.4916,2.4762,2.4911,2.491,2.4909,2.4908,2.4908,0,2.5734,2.568,2.5651,2.5585,2.5559,2.5487,2.543,2.5414,2.5394,2.5338,2.5305,2.5271,2.5237,2.5156,2.5115,2.5116,2.508,2.5109,2.5108,2.5099,2.4955,2.4951,2.5138,2.5138,2.5138,2.5138,2.5138,2.5138,2.5824,2.5824,2.5769,2.5745,2.5691,2.5666,2.5639,2.56,2.5554,2.5519,2.549,2.5436,2.537,2.5324,2.529,2.5267,2.5258,2.5298,2.5264,2.5131,2.5109,2.5089,2.5084,2.5296,2.5296,2.541,2.5411,2.5412]},{"header":{"parameterUnit":"m.s-1","parameterCategory":1,"la1":30.2991,"la2":30.254,"lo1":-89.0895,"lo2":-89.0444,"dy":0.0017,"dx":0.0017,"nx":28,"ny":28,"refTime":"2024-02-05T03:00:00:Z","depth":0,"parameterNumber":3,"parameterNumberName":"V-component_of_WINDS"},"data":[0,0,0,0,0,0,0,0,0,0,0,0,0,0,0,0,0,0,0,0,0,0,0,0,0,0,0,0,0,0,0,0,0,0,0,0,0,0,0,0,0,0,0,0,0,0,0,0,0,0,0,0,0,0,0,0,0,0,-4.5544,-4.5546,0,-4.5743,-4.5745,-4.5747,-4.5789,-4.5787,-4.5786,-4.5784,-4.5991,-4.5998,-4.6005,0,0,0,0,0,0,0,0,0,0,0,0,0,-4.5204,-4.521,-4.5543,-4.5546,-4.5548,-4.5742,-4.5745,-4.5748,-4.5789,-4.5787,-4.5785,-4.5783,-4.5989,-4.5997,-4.6005,0,0,0,0,0,0,0,0,0,0,0,0,0,-4.5372,-4.5212,-4.5543,-4.5592,-4.5599,-4.5742,-4.5745,-4.5748,-4.5789,-4.5787,-4.5785,-4.5783,-4.5986,-4.5996,-4.6006,-4.6116,0,0,-4.6038,-4.6043,0,0,0,0,0,0,0,0,-4.5363,-4.5385,-4.5583,-4.5589,-4.5597,-4.5738,-4.5701,-4.5872,-4.579,-4.5717,-4.5784,-4.5781,-4.5909,-4.5926,-4.5968,-4.6125,-4.6134,-4.6039,-4.6045,-4.605,-4.6053,0,0,0,0,0,0,0,-4.5351,-4.5376,-4.5622,-4.5585,-4.5594,-4.5606,-4.5627,-4.5734,-4.5823,-4.5723,-4.5727,-4.5749,-4.5913,-4.5958,-4.5973,-4.6137,-4.6039,-4.6048,-4.6054,-4.6058,-4.6397,-4.64,0,0,0,0,0,0,-4.533,-4.5366,-4.5616,-4.5628,-4.5471,-4.5614,-4.5638,-4.5695,-4.5822,-4.5839,-4.5751,-4.5751,-4.5941,-4.5961,-4.5981,-4.6119,-4.605,-4.6059,-4.6065,-4.6395,-4.6398,-4.6401,0,0,0,0,0,0,-4.5322,-4.5352,-4.5608,-4.5498,-4.5532,-4.5622,-4.5686,-4.57,-4.5746,-4.5843,-4.586,-4.5781,-4.594,-4.5966,-4.6082,-4.6127,-4.6064,-4.6074,-4.6391,-4.6396,-4.64,-4.6396,0,0,0,0,0,0,-4.5313,-4.5349,-4.539,-4.5499,-4.5538,-4.5705,-4.5689,-4.5706,-4.5763,-4.5764,-4.5876,-4.5892,-4.5941,-4.6067,-4.6093,-4.614,-4.6082,-4.6388,-4.6393,-4.6398,-4.6392,-4.6399,-4.6405,0,0,0,0,0,-4.53,-4.5381,-4.5392,-4.5422,-4.5591,-4.5707,-4.573,-4.5783,-4.5766,-4.581,-4.5873,-4.5888,-4.6117,-4.6078,-4.6108,-4.6159,-4.6385,-4.6392,-4.6398,-4.6389,-4.6398,-4.6405,0,0,0,0,0,0,-4.5276,-4.5396,-4.541,-4.5528,-4.5607,-4.5714,-4.577,-4.579,-4.5876,-4.5874,-4.5937,-4.5962,-4.6075,-4.6129,-4.6083,-4.6273,-4.6251,-4.6263,-4.6234,-4.6243,-4.6249,-4.6235,-4.609,0,0,0,0,0,-4.5284,-4.5367,-4.5468,-4.5563,-4.5602,-4.5679,-4.5732,-4.5766,-4.5851,-4.5885,-4.5957,-4.604,-4.6131,-4.619,-4.6278,-4.64,-4.6426,-4.645,-4.6456,-4.6461,-4.6472,-4.6543,-4.6555,-4.6422,-4.6422,-4.6421,0,0,-4.5302,-4.5378,-4.5427,-4.556,-4.5626,-4.5712,-4.5707,-4.5798,-4.5864,-4.59,-4.6014,-4.6069,-4.6167,-4.6286,-4.6343,-4.6334,-4.6514,-4.6469,-4.6472,-4.648,-4.655,-4.6563,-4.6574,-4.6426,-4.6425,-4.6424,0,0,-4.538,-4.5445,-4.5532,-4.5598,-4.5697,-4.5748,-4.5768,-4.5873,-4.5912,-4.6027,-4.6056,-4.6136,-4.629,-4.6359,-4.6414,-4.652,-4.6539,-4.6547,-4.6582,-4.665,-4.6661,-4.667,-4.6711,-4.6724,-4.6557,-4.6557,-4.6557,0,-4.5391,-4.5521,-4.5575,-4.5666,-4.5724,-4.5759,-4.585,-4.5911,-4.6035,-4.6075,-4.6064,-4.626,-4.6328,-4.6466,-4.6491,-4.6534,-4.6562,-4.6536,-4.6654,-4.6665,-4.6675,-4.6714,-4.6729,-4.6558,-4.6558,-4.6558,-4.6558,0,-4.5531,-4.5621,-4.568,-4.5798,-4.5863,-4.5953,-4.6022,-4.6082,-4.611,-4.6163,-4.6282,-4.6365,-4.6472,-4.6507,-4.6536,-4.665,-4.6642,-4.6641,-4.6621,-4.6687,-4.6725,-4.674,-4.6559,-4.6558,-4.6558,-4.6558,0,0,-4.56,-4.5746,-4.5767,-4.5822,-4.5934,-4.6006,-4.6099,-4.6203,-4.6255,-4.6339,-4.642,-4.655,-4.6551,-4.6614,-4.6651,-4.6711,-4.6793,-4.6704,-4.6707,-4.672,-4.6927,-4.6928,-4.6944,-4.6805,-4.6808,-4.681,-4.6919,0,-4.5693,-4.5858,-4.591,-4.6049,-4.6134,-4.6169,-4.6251,-4.6329,-4.6381,-4.6463,-4.6521,-4.6613,-4.6606,-4.6645,-4.6705,-4.677,-4.6836,-4.6762,-4.6883,-4.6887,-4.686,-4.6964,-4.6965,-4.7064,-4.6934,-4.6937,-4.6939,0,-4.5824,-4.591,-4.6058,-4.6161,-4.6199,-4.6271,-4.6372,-4.6448,-4.6539,-4.6573,-4.6644,-4.6676,-4.6777,-4.6749,-4.6889,-4.6839,-4.6891,-4.693,-4.6936,-4.6951,-4.6918,-4.6984,-4.7096,-4.7112,-4.6962,-4.696,-4.6959,0,-4.5863,-4.6016,-4.6124,-4.617,-4.6292,-4.6343,-4.6396,-4.6485,-4.6545,-4.6634,-4.6674,-4.6773,-4.6828,-4.6905,-4.6964,-4.6938,-4.7101,-4.7077,-4.7134,-4.7133,-4.7168,-4.7165,-4.7293,-4.7198,-4.7197,-4.7197,-4.7197,0,-4.5963,-4.6053,-4.6144,-4.621,-4.6313,-4.6371,-4.6472,-4.6527,-4.6606,-4.6686,-4.6722,-4.6797,-4.687,-4.6955,-4.7002,-4.7113,-4.7137,-4.7168,-4.718,-4.7167,-4.7163,-4.7204,-4.7199,-4.7201,-4.72,-4.72,-4.7199,0,-4.6025,-4.6088,-4.621,-4.6316,-4.6345,-4.6415,-4.6508,-4.6575,-4.6628,-4.6729,-4.6757,-4.6841,-4.6943,-4.701,-4.714,-4.7172,-4.7294,-4.7302,-4.7263,-4.7269,-4.7323,-4.7318,-4.7483,-4.7509,-4.7393,-4.7394,-4.7395,0,-4.6085,-4.6155,-4.6269,-4.6325,-4.6378,-4.6468,-4.6529,-4.659,-4.6654,-4.6763,-4.6818,-4.6922,-4.7009,-4.7171,-4.7245,-4.7346,-4.7359,-4.741,-4.7374,-4.7359,-4.7363,-4.7359,-4.7368,-4.7416,-4.7417,-4.7418,-4.7418,0,-4.6188,-4.6216,-4.6303,-4.6402,-4.6474,-4.6555,-4.6636,-4.668,-4.6755,-4.6825,-4.6929,-4.6996,-4.713,-4.7234,-4.7341,-4.7399,-4.7423,-4.7429,-4.7448,-4.7436,-4.7411,-4.7428,-4.7281,-4.7425,-4.7424,-4.7424,-4.7424,-4.7423,-4.6253,-4.6317,-4.6408,-4.6504,-4.6571,-4.6646,-4.6716,-4.6778,-4.6866,-4.6978,-4.7009,-4.7119,-4.7211,-4.7357,-4.7417,-4.7505,-4.7499,-4.7526,-4.7533,-4.7539,-4.7541,-4.7395,-4.7524,-4.7524,-4.7524,-4.7524,-4.7524,0,-4.6359,-4.6419,-4.6507,-4.6619,-4.6696,-4.6709,-4.68,-4.6864,-4.696,-4.7042,-4.7127,-4.7248,-4.735,-4.7432,-4.7537,-4.7592,-4.7606,-4.7618,-4.7616,-4.7629,-4.7539,-4.7513,-4.7605,-4.7605,-4.7605,-4.7605,-4.7605,-4.7605,-4.6424,-4.6534,-4.6574,-4.6719,-4.6779,-4.6886,-4.6937,-4.7008,-4.7075,-4.7208,-4.7292,-4.7345,-4.7428,-4.754,-4.7635,-4.7656,-4.7695,-4.7705,-4.7729,-4.7644,-4.7635,-4.7627,-4.7603,-4.7712,-4.7712,-4.7812,-4.7813,-4.7814]}]]